TimeCET,TemperatureF,Dew PointF,Humidity,Sea Level PressureIn,VisibilityMPH,Wind Direction,Wind SpeedMPH,Gust SpeedMPH,PrecipitationIn,Events,Conditions,WindDirDegrees,DateUTC
12:15 AM,51.8,48.2,88,30.15,3.7,ESE,1.2,-,N/A,,Scattered Clouds,120,2012-11-22 23:15:00
12:45 AM,51.8,48.2,88,30.15,3.7,North,1.2,-,N/A,,Mostly Cloudy,360,2012-11-22 23:45:00
1:15 AM,51.8,48.2,88,30.15,3.7,North,3.5,-,N/A,,Mostly Cloudy,10,2012-11-23 00:15:00
1:45 AM,51.8,48.2,88,30.15,3.7,NNE,1.2,-,N/A,,Mostly Cloudy,30,2012-11-23 00:45:00
2:15 AM,51.8,48.2,88,30.15,3.7,NNE,2.3,-,N/A,,Mostly Cloudy,30,2012-11-23 01:15:00
2:45 AM,51.8,48.2,88,30.15,3.7,North,1.2,-,N/A,,Mostly Cloudy,350,2012-11-23 01:45:00
3:15 AM,50.0,48.2,94,30.15,3.7,NNE,1.2,-,N/A,,Scattered Clouds,20,2012-11-23 02:15:00
3:45 AM,50.0,48.2,94,30.15,3.1,North,1.2,-,N/A,,Scattered Clouds,10,2012-11-23 02:45:00
4:15 AM,50.0,48.2,94,30.15,3.1,Calm,Calm,-,N/A,,Scattered Clouds,0,2012-11-23 03:15:00
4:45 AM,50.0,48.2,94,30.15,3.1,NW,2.3,-,N/A,,Scattered Clouds,320,2012-11-23 03:45:00
5:15 AM,50.0,48.2,94,30.15,3.1,Calm,Calm,-,N/A,,Scattered Clouds,0,2012-11-23 04:15:00
5:45 AM,50.0,48.2,94,30.15,3.1,Calm,Calm,-,N/A,,Scattered Clouds,0,2012-11-23 04:45:00
6:15 AM,50.0,48.2,94,30.15,3.1,Calm,Calm,-,N/A,,Scattered Clouds,0,2012-11-23 05:15:00
6:45 AM,50.0,48.2,94,30.15,3.1,Calm,Calm,-,N/A,,Scattered Clouds,0,2012-11-23 05:45:00
7:15 AM,50.0,48.2,94,30.15,3.1,NNE,2.3,-,N/A,,Partly Cloudy,30,2012-11-23 06:15:00
7:45 AM,50.0,48.2,94,30.15,3.1,NE,1.2,-,N/A,,Scattered Clouds,50,2012-11-23 06:45:00
8:15 AM,50.0,48.2,94,30.18,3.7,Calm,Calm,-,N/A,,Scattered Clouds,0,2012-11-23 07:15:00
8:45 AM,51.8,50.0,94,30.18,3.7,Calm,Calm,-,N/A,,Scattered Clouds,0,2012-11-23 07:45:00
9:15 AM,53.6,50.0,88,30.18,4.3,NNW,2.3,-,N/A,,Scattered Clouds,330,2012-11-23 08:15:00
9:45 AM,53.6,51.8,94,30.18,5.0,Calm,Calm,-,N/A,,Scattered Clouds,0,2012-11-23 08:45:00
10:15 AM,57.2,55.4,94,30.21,6.2,NNE,2.3,-,N/A,,Scattered Clouds,30,2012-11-23 09:15:00
10:45 AM,57.2,55.4,94,30.21,5.0,ENE,3.5,-,N/A,,Scattered Clouds,60,2012-11-23 09:45:00
11:15 AM,59.0,57.2,94,30.21,5.0,North,2.3,-,N/A,,Scattered Clouds,360,2012-11-23 10:15:00
11:45 AM,62.6,57.2,82,30.18,6.2,Calm,Calm,-,N/A,,Partly Cloudy,0,2012-11-23 10:45:00
12:15 PM,62.6,57.2,82,30.18,6.2,NNW,1.2,-,N/A,,Partly Cloudy,340,2012-11-23 11:15:00
12:45 PM,62.6,55.4,77,30.18,6.2,Calm,Calm,-,N/A,,Partly Cloudy,0,2012-11-23 11:45:00
1:15 PM,64.4,55.4,73,30.18,6.2,WNW,1.2,-,N/A,,Partly Cloudy,300,2012-11-23 12:15:00
1:45 PM,64.4,55.4,73,30.18,6.2,West,3.5,-,N/A,,Partly Cloudy,260,2012-11-23 12:45:00
2:15 PM,64.4,55.4,73,30.18,6.2,West,2.3,-,N/A,,Scattered Clouds,270,2012-11-23 13:15:00
2:45 PM,64.4,53.6,68,30.18,6.2,West,2.3,-,N/A,,Partly Cloudy,260,2012-11-23 13:45:00
3:15 PM,64.4,53.6,68,30.18,6.2,West,2.3,-,N/A,,Partly Cloudy,270,2012-11-23 14:15:00
3:45 PM,62.6,55.4,77,30.18,6.2,West,3.5,-,N/A,,Partly Cloudy,270,2012-11-23 14:45:00
4:15 PM,62.6,55.4,77,30.18,6.2,WNW,3.5,-,N/A,,Partly Cloudy,290,2012-11-23 15:15:00
4:45 PM,62.6,55.4,77,30.18,4.3,NNW,1.2,-,N/A,,Partly Cloudy,340,2012-11-23 15:45:00
5:15 PM,60.8,55.4,82,30.18,4.3,Calm,Calm,-,N/A,,Partly Cloudy,0,2012-11-23 16:15:00
5:45 PM,59.0,53.6,82,30.18,4.3,SW,1.2,-,N/A,,Partly Cloudy,230,2012-11-23 16:45:00
6:15 PM,57.2,53.6,88,30.18,4.3,West,1.2,-,N/A,,Partly Cloudy,260,2012-11-23 17:15:00
6:45 PM,55.4,51.8,88,30.18,4.3,SSE,1.2,-,N/A,,Partly Cloudy,160,2012-11-23 17:45:00
7:15 PM,55.4,51.8,88,30.18,4.3,SE,2.3,-,N/A,,Partly Cloudy,140,2012-11-23 18:15:00
7:45 PM,55.4,51.8,88,30.21,4.3,SE,1.2,-,N/A,,Clear,130,2012-11-23 18:45:00
8:45 PM,53.6,50.0,88,30.21,4.3,ESE,2.3,-,N/A,,Clear,120,2012-11-23 19:45:00
9:15 PM,53.6,50.0,88,30.21,4.3,ESE,3.5,-,N/A,,Clear,110,2012-11-23 20:15:00
9:45 PM,53.6,50.0,88,30.21,4.3,SE,1.2,-,N/A,,Clear,140,2012-11-23 20:45:00
10:15 PM,53.6,50.0,88,30.21,4.3,SE,2.3,-,N/A,,Clear,140,2012-11-23 21:15:00
10:45 PM,53.6,50.0,88,30.21,4.3,SSE,1.2,-,N/A,,Clear,160,2012-11-23 21:45:00
11:15 PM,51.8,48.2,88,30.21,4.3,SSE,1.2,-,N/A,,Clear,150,2012-11-23 22:15:00
11:45 PM,51.8,48.2,88,30.21,4.3,Calm,Calm,-,N/A,,Clear,0,2012-11-23 22:45:00